Time,TemperatureF,DewpointF,PressureIn,WindDirection,WindDirectionDegrees,WindSpeedMPH,WindSpeedGustMPH,Humidity,HourlyPrecipIn,Conditions,Clouds,dailyrainin,SolarRadiationWatts/m^2,SoftwareType,DateUTC
2013-07-11 00:01:00,88.0,64.0,29.58,ESE,111,1.0,4.0,45,0.00,,,0.00,0.000000,,2013-07-11 05:01:00,
2013-07-11 00:12:00,88.0,65.0,29.58,ESE,114,0.0,4.0,46,0.00,,,0.00,0.000000,,2013-07-11 05:12:00,
2013-07-11 00:22:00,88.0,65.0,29.58,ESE,114,0.0,4.0,46,0.00,,,0.00,0.000000,,2013-07-11 05:22:00,
2013-07-11 00:32:00,87.0,64.0,29.58,SE,142,0.0,3.0,47,0.00,,,0.00,0.000000,,2013-07-11 05:32:00,
2013-07-11 00:43:00,87.0,65.0,29.58,SSE,147,0.0,1.0,48,0.00,,,0.00,0.000000,,2013-07-11 05:43:00,
2013-07-11 00:52:00,87.0,65.0,29.58,SSE,147,0.0,1.0,48,0.00,,,0.00,0.000000,,2013-07-11 05:52:00,
2013-07-11 01:01:00,87.0,64.0,29.58,SSE,161,2.0,6.0,47,0.00,,,0.00,0.000000,,2013-07-11 06:01:00,
2013-07-11 01:11:00,87.0,65.0,29.59,SSE,160,0.0,5.0,48,0.00,,,0.00,0.000000,,2013-07-11 06:11:00,
2013-07-11 01:22:00,87.0,65.0,29.59,SSE,160,0.0,5.0,48,0.00,,,0.00,0.000000,,2013-07-11 06:22:00,
2013-07-11 01:32:00,86.0,65.0,29.59,SE,141,1.0,4.0,49,0.00,,,0.00,0.000000,,2013-07-11 06:32:00,
2013-07-11 01:43:00,86.0,65.0,29.59,South,175,1.0,7.0,49,0.00,,,0.00,0.000000,,2013-07-11 06:43:00,
2013-07-11 01:52:00,86.0,65.0,29.59,South,175,1.0,7.0,49,0.00,,,0.00,0.000000,,2013-07-11 06:52:00,
2013-07-11 02:01:00,86.0,65.0,29.59,SSE,153,3.0,7.0,50,0.00,,,0.00,0.000000,,2013-07-11 07:01:00,
2013-07-11 02:12:00,85.0,65.0,29.60,South,175,2.0,6.0,51,0.00,,,0.00,0.000000,,2013-07-11 07:12:00,
2013-07-11 02:22:00,85.0,65.0,29.60,South,175,2.0,6.0,51,0.00,,,0.00,0.000000,,2013-07-11 07:22:00,
2013-07-11 02:32:00,85.0,66.0,29.60,South,186,3.0,6.0,53,0.00,,,0.00,0.000000,,2013-07-11 07:32:00,
2013-07-11 02:45:00,84.0,66.0,29.60,SE,137,1.0,9.0,55,0.00,,,0.00,0.000000,,2013-07-11 07:45:00,
2013-07-11 02:53:00,84.0,66.0,29.60,SE,137,1.0,9.0,55,0.00,,,0.00,0.000000,,2013-07-11 07:53:00,
2013-07-11 03:02:00,84.0,67.0,29.60,SSE,158,2.0,9.0,56,0.00,,,0.00,0.000000,,2013-07-11 08:02:00,
2013-07-11 03:11:00,84.0,68.0,29.60,SSE,166,2.0,8.0,58,0.00,,,0.00,0.000000,,2013-07-11 08:11:00,
2013-07-11 03:22:00,84.0,68.0,29.60,SSE,166,2.0,8.0,58,0.00,,,0.00,0.000000,,2013-07-11 08:22:00,
2013-07-11 03:34:00,84.0,69.0,29.59,SW,215,0.0,9.0,60,0.00,,,0.00,0.000000,,2013-07-11 08:34:00,
2013-07-11 03:43:00,84.0,69.0,29.59,SSW,196,0.0,8.0,61,0.00,,,0.00,0.000000,,2013-07-11 08:43:00,
2013-07-11 03:53:00,84.0,69.0,29.59,SSW,196,0.0,8.0,61,0.00,,,0.00,0.000000,,2013-07-11 08:53:00,
2013-07-11 04:02:00,83.0,69.0,29.59,SSE,150,1.0,6.0,62,0.00,,,0.00,0.000000,,2013-07-11 09:02:00,
2013-07-11 04:12:00,83.0,69.0,29.59,SSE,150,1.0,6.0,62,0.00,,,0.00,0.000000,,2013-07-11 09:12:00,
2013-07-11 04:21:00,83.0,70.0,29.59,SSE,162,0.0,4.0,64,0.00,,,0.00,0.000000,,2013-07-11 09:21:00,
2013-07-11 04:33:00,83.0,70.0,29.59,South,171,0.0,4.0,65,0.00,,,0.00,0.000000,,2013-07-11 09:33:00,
2013-07-11 04:43:00,83.0,70.0,29.59,South,171,0.0,4.0,65,0.00,,,0.00,0.000000,,2013-07-11 09:43:00,
2013-07-11 04:53:00,82.0,69.0,29.60,SSE,155,0.0,4.0,66,0.00,,,0.00,0.000000,,2013-07-11 09:53:00,
2013-07-11 05:01:00,82.0,70.0,29.60,SSE,161,1.0,5.0,67,0.00,,,0.00,0.000000,,2013-07-11 10:01:00,
2013-07-11 05:12:00,82.0,70.0,29.60,SSE,161,1.0,5.0,67,0.00,,,0.00,0.000000,,2013-07-11 10:12:00,
2013-07-11 05:22:00,82.0,70.0,29.59,SSE,163,1.0,3.0,67,0.00,,,0.00,0.000000,,2013-07-11 10:22:00,
2013-07-11 05:33:00,82.0,70.0,29.59,SSE,153,0.0,4.0,68,0.00,,,0.00,0.000000,,2013-07-11 10:33:00,
2013-07-11 05:42:00,82.0,70.0,29.59,SSE,153,0.0,4.0,68,0.00,,,0.00,0.000000,,2013-07-11 10:42:00,
2013-07-11 05:52:00,82.0,71.0,29.59,SE,144,2.0,5.0,69,0.00,,,0.00,0.000000,,2013-07-11 10:52:00,
2013-07-11 06:02:00,82.0,71.0,29.59,South,181,1.0,7.0,69,0.00,,,0.00,0.000000,,2013-07-11 11:02:00,
2013-07-11 06:12:00,82.0,71.0,29.59,South,181,1.0,7.0,69,0.00,,,0.00,0.000000,,2013-07-11 11:12:00,
2013-07-11 06:22:00,81.0,70.0,29.59,SSE,159,2.0,5.0,70,0.00,,,0.00,0.000000,,2013-07-11 11:22:00,
2013-07-11 06:32:00,81.0,70.0,29.59,SSE,164,0.0,8.0,70,0.00,,,0.00,0.000000,,2013-07-11 11:32:00,
2013-07-11 06:43:00,81.0,70.0,29.59,SSE,164,0.0,8.0,70,0.00,,,0.00,0.000000,,2013-07-11 11:43:00,
2013-07-11 06:53:00,81.0,70.0,29.59,South,171,1.0,5.0,70,0.00,,,0.00,0.000000,,2013-07-11 11:53:00,
2013-07-11 07:01:00,81.0,70.0,29.60,South,180,0.0,5.0,70,0.00,,,0.00,16.000000,,2013-07-11 12:01:00,
2013-07-11 07:12:00,81.0,70.0,29.60,South,180,0.0,5.0,70,0.00,,,0.00,16.000000,,2013-07-11 12:12:00,
2013-07-11 07:22:00,81.0,70.0,29.60,South,174,0.0,5.0,70,0.00,,,0.00,37.000000,,2013-07-11 12:22:00,
2013-07-11 07:33:00,82.0,71.0,29.60,SSW,198,0.0,4.0,69,0.00,,,0.00,58.000000,,2013-07-11 12:33:00,
2013-07-11 07:43:00,82.0,71.0,29.60,SSW,198,0.0,4.0,69,0.00,,,0.00,58.000000,,2013-07-11 12:43:00,
2013-07-11 07:57:00,82.0,70.0,29.59,SSE,166,1.0,5.0,68,0.00,,,0.00,79.000000,,2013-07-11 12:57:00,
2013-07-11 08:13:00,83.0,71.0,29.60,SSE,168,1.0,6.0,68,0.00,,,0.00,104.000000,,2013-07-11 13:13:00,
2013-07-11 08:23:00,83.0,71.0,29.60,SW,223,1.0,5.0,67,0.00,,,0.00,211.000000,,2013-07-11 13:23:00,
2013-07-11 08:34:00,84.0,71.0,29.60,SW,216,1.0,6.0,65,0.00,,,0.00,250.000000,,2013-07-11 13:34:00,
2013-07-11 08:45:00,84.0,71.0,29.60,SW,216,1.0,6.0,65,0.00,,,0.00,250.000000,,2013-07-11 13:45:00,
2013-07-11 08:54:00,85.0,71.0,29.61,SSE,159,1.0,7.0,64,0.00,,,0.00,318.000000,,2013-07-11 13:54:00,
2013-07-11 09:04:00,86.0,71.0,29.61,WSW,241,2.0,7.0,62,0.00,,,0.00,278.000000,,2013-07-11 14:04:00,
2013-07-11 09:14:00,86.0,71.0,29.61,WSW,241,2.0,7.0,62,0.00,,,0.00,278.000000,,2013-07-11 14:14:00,
2013-07-11 09:23:00,86.0,71.0,29.61,South,182,4.0,9.0,61,0.00,,,0.00,308.000000,,2013-07-11 14:23:00,
2013-07-11 09:35:00,87.0,71.0,29.61,SW,235,2.0,9.0,60,0.00,,,0.00,503.000000,,2013-07-11 14:35:00,
2013-07-11 09:45:00,87.0,71.0,29.61,SW,235,2.0,9.0,60,0.00,,,0.00,503.000000,,2013-07-11 14:45:00,
2013-07-11 09:55:00,89.0,72.0,29.61,SW,217,3.0,11.0,58,0.00,,,0.00,608.000000,,2013-07-11 14:55:00,
2013-07-11 10:04:00,90.0,72.0,29.61,WSW,245,4.0,9.0,56,0.00,,,0.00,571.000000,,2013-07-11 15:04:00,
2013-07-11 10:13:00,90.0,72.0,29.61,WSW,245,4.0,9.0,56,0.00,,,0.00,571.000000,,2013-07-11 15:13:00,
2013-07-11 10:24:00,90.0,72.0,29.61,SW,225,3.0,7.0,55,0.00,,,0.00,475.000000,,2013-07-11 15:24:00,
2013-07-11 10:35:00,90.0,72.0,29.61,SW,226,2.0,6.0,55,0.00,,,0.00,622.000000,,2013-07-11 15:35:00,
2013-07-11 10:45:00,90.0,72.0,29.61,SW,226,2.0,6.0,55,0.00,,,0.00,622.000000,,2013-07-11 15:45:00,
2013-07-11 10:57:00,91.0,71.0,29.61,SW,231,4.0,7.0,53,0.00,,,0.00,638.000000,,2013-07-11 15:57:00,
2013-07-11 11:04:00,92.0,71.0,29.61,SW,234,3.0,8.0,51,0.00,,,0.00,788.000000,,2013-07-11 16:04:00,
2013-07-11 11:13:00,92.0,71.0,29.61,SW,234,3.0,8.0,51,0.00,,,0.00,788.000000,,2013-07-11 16:13:00,
2013-07-11 11:34:00,94.0,72.0,29.61,South,169,1.0,7.0,49,0.00,,,0.00,754.000000,,2013-07-11 16:34:00,
2013-07-11 11:56:00,95.0,72.0,29.60,SW,224,1.0,6.0,48,0.00,,,0.00,754.000000,,2013-07-11 16:56:00,
2013-07-11 12:02:00,95.0,70.0,29.61,SSW,207,1.0,7.0,45,0.00,,,0.00,814.000000,,2013-07-11 17:02:00,
2013-07-11 12:13:00,95.0,70.0,29.61,SSW,207,1.0,7.0,45,0.00,,,0.00,814.000000,,2013-07-11 17:13:00,
2013-07-11 12:26:00,97.0,71.0,29.60,SSW,199,0.0,4.0,44,0.00,,,0.00,819.000000,,2013-07-11 17:26:00,
2013-07-11 12:36:00,97.0,70.0,29.60,WSW,239,1.0,4.0,42,0.00,,,0.00,830.000000,,2013-07-11 17:36:00,
2013-07-11 12:45:00,97.0,70.0,29.60,WSW,239,1.0,4.0,42,0.00,,,0.00,830.000000,,2013-07-11 17:45:00,
2013-07-11 12:55:00,98.0,70.0,29.60,SW,229,3.0,7.0,41,0.00,,,0.00,816.000000,,2013-07-11 17:55:00,
2013-07-11 13:03:00,98.0,68.0,29.59,WSW,252,0.0,4.0,38,0.00,,,0.00,895.000000,,2013-07-11 18:03:00,
2013-07-11 13:14:00,98.0,68.0,29.59,WSW,252,0.0,4.0,38,0.00,,,0.00,895.000000,,2013-07-11 18:14:00,
2013-07-11 13:23:00,99.0,69.0,29.59,South,169,1.0,8.0,38,0.00,,,0.00,956.000000,,2013-07-11 18:23:00,
2013-07-11 13:35:00,99.0,69.0,29.58,NW,307,0.0,6.0,38,0.00,,,0.00,919.000000,,2013-07-11 18:35:00,
2013-07-11 13:45:00,99.0,69.0,29.58,NW,307,0.0,6.0,38,0.00,,,0.00,919.000000,,2013-07-11 18:45:00,
2013-07-11 13:56:00,99.0,69.0,29.58,North,350,1.0,4.0,38,0.00,,,0.00,253.000000,,2013-07-11 18:56:00,
2013-07-11 14:13:00,102.0,69.0,29.57,SSW,201,2.0,8.0,35,0.00,,,0.00,,,2013-07-11 19:13:00,
2013-07-11 14:23:00,101.0,67.0,29.57,East,101,3.0,9.0,33,0.00,,,0.00,,,2013-07-11 19:23:00,
2013-07-11 14:36:00,102.0,68.0,29.56,ENE,71,1.0,7.0,34,0.00,,,0.00,976.000000,,2013-07-11 19:36:00,
2013-07-11 14:44:00,102.0,68.0,29.56,ENE,71,1.0,7.0,34,0.00,,,0.00,976.000000,,2013-07-11 19:44:00,
2013-07-11 14:57:00,102.0,67.0,29.55,ENE,70,1.0,7.0,32,0.00,,,0.00,965.000000,,2013-07-11 19:57:00,
2013-07-11 15:03:00,103.0,67.0,29.54,ESE,116,2.0,7.0,32,0.00,,,0.00,949.000000,,2013-07-11 20:03:00,
2013-07-11 15:25:00,101.0,66.0,29.54,East,101,4.0,8.0,32,0.00,,,0.00,251.000000,,2013-07-11 20:25:00,
2013-07-11 15:46:00,102.0,67.0,29.53,ESE,112,1.0,5.0,32,0.00,,,0.00,916.000000,,2013-07-11 20:46:00,
2013-07-11 15:56:00,103.0,66.0,29.53,ENE,58,2.0,6.0,31,0.00,,,0.00,930.000000,,2013-07-11 20:56:00,
2013-07-11 16:13:00,103.0,66.0,29.52,ENE,65,1.0,4.0,31,0.00,,,0.00,308.000000,,2013-07-11 21:13:00,
2013-07-11 16:23:00,101.0,68.0,29.52,East,92,7.0,13.0,35,0.00,,,0.00,260.000000,,2013-07-11 21:23:00,
2013-07-11 16:34:00,98.0,69.0,29.52,ESE,103,9.0,15.0,39,0.00,,,0.00,241.000000,,2013-07-11 21:34:00,
2013-07-11 16:44:00,98.0,69.0,29.52,ESE,103,9.0,15.0,39,0.00,,,0.00,241.000000,,2013-07-11 21:44:00,
2013-07-11 16:57:00,96.0,68.0,29.53,SE,134,8.0,15.0,41,0.00,,,0.00,200.000000,,2013-07-11 21:57:00,
2013-07-11 17:04:00,93.0,69.0,29.53,ESE,123,6.0,19.0,46,0.00,,,0.00,183.000000,,2013-07-11 22:04:00,
2013-07-11 17:14:00,93.0,69.0,29.53,ESE,123,6.0,19.0,46,0.00,,,0.00,183.000000,,2013-07-11 22:14:00,
2013-07-11 17:24:00,92.0,68.0,29.54,SE,144,8.0,19.0,46,0.00,,,0.00,142.000000,,2013-07-11 22:24:00,
2013-07-11 17:32:00,91.0,69.0,29.52,SSE,161,3.0,11.0,48,0.00,,,0.00,135.000000,,2013-07-11 22:32:00,
2013-07-11 17:45:00,91.0,69.0,29.52,SSE,161,3.0,11.0,48,0.00,,,0.00,135.000000,,2013-07-11 22:45:00,
2013-07-11 17:55:00,91.0,69.0,29.53,South,183,3.0,9.0,48,0.00,,,0.00,128.000000,,2013-07-11 22:55:00,
2013-07-11 18:04:00,90.0,68.0,29.52,SSE,156,1.0,7.0,48,0.00,,,0.00,162.000000,,2013-07-11 23:04:00,
2013-07-11 18:13:00,90.0,68.0,29.52,SSE,156,1.0,7.0,48,0.00,,,0.00,162.000000,,2013-07-11 23:13:00,
2013-07-11 18:24:00,91.0,68.0,29.52,SE,134,0.0,4.0,47,0.00,,,0.00,227.000000,,2013-07-11 23:24:00,
2013-07-11 18:34:00,91.0,68.0,29.54,East,84,2.0,8.0,47,0.00,,,0.00,114.000000,,2013-07-11 23:34:00,
2013-07-11 18:46:00,91.0,68.0,29.54,East,84,2.0,8.0,47,0.00,,,0.00,114.000000,,2013-07-11 23:46:00,
2013-07-11 18:58:00,90.0,71.0,29.55,East,86,8.0,19.0,54,0.00,,,0.00,174.000000,,2013-07-11 23:58:00,
2013-07-11 19:13:00,89.0,71.0,29.54,ESE,122,3.0,14.0,55,0.00,,,0.00,93.000000,,2013-07-12 00:13:00,
2013-07-11 19:23:00,88.0,70.0,29.53,SE,138,5.0,10.0,55,0.00,,,0.00,63.000000,,2013-07-12 00:23:00,
2013-07-11 19:34:00,88.0,69.0,29.53,ESE,109,5.0,13.0,54,0.00,,,0.00,72.000000,,2013-07-12 00:34:00,
2013-07-11 19:43:00,88.0,69.0,29.53,ESE,109,5.0,13.0,54,0.00,,,0.00,72.000000,,2013-07-12 00:43:00,
2013-07-11 19:58:00,88.0,69.0,29.54,SE,138,4.0,11.0,54,0.00,,,0.00,60.000000,,2013-07-12 00:58:00,
2013-07-11 20:12:00,87.0,69.0,29.55,ESE,117,5.0,12.0,56,0.00,,,0.00,40.000000,,2013-07-12 01:12:00,
2013-07-11 20:26:00,87.0,70.0,29.56,ESE,105,5.0,11.0,57,0.00,,,0.00,21.000000,,2013-07-12 01:26:00,
2013-07-11 20:45:00,86.0,68.0,29.56,SE,136,4.0,11.0,56,0.00,,,0.00,16.000000,,2013-07-12 01:45:00,
2013-07-11 20:56:00,86.0,69.0,29.55,East,86,0.0,7.0,57,0.00,,,0.00,11.000000,,2013-07-12 01:56:00,
2013-07-11 21:04:00,86.0,70.0,29.55,East,95,1.0,8.0,59,0.00,,,0.00,0.000000,,2013-07-12 02:04:00,
2013-07-11 21:15:00,86.0,70.0,29.55,East,95,1.0,8.0,59,0.00,,,0.00,0.000000,,2013-07-12 02:15:00,
2013-07-11 21:24:00,85.0,69.0,29.55,ESE,108,1.0,5.0,59,0.00,,,0.00,0.000000,,2013-07-12 02:24:00,
2013-07-11 21:35:00,85.0,70.0,29.55,ESE,104,0.0,5.0,60,0.00,,,0.00,0.000000,,2013-07-12 02:35:00,
2013-07-11 21:43:00,85.0,70.0,29.55,ESE,104,0.0,5.0,60,0.00,,,0.00,0.000000,,2013-07-12 02:43:00,
2013-07-11 21:55:00,84.0,69.0,29.54,ESE,104,1.0,4.0,60,0.00,,,0.00,0.000000,,2013-07-12 02:55:00,
2013-07-11 22:02:00,84.0,69.0,29.54,SE,136,0.0,3.0,61,0.00,,,0.00,0.000000,,2013-07-12 03:02:00,
2013-07-11 22:14:00,84.0,69.0,29.54,SE,136,0.0,3.0,61,0.00,,,0.00,0.000000,,2013-07-12 03:14:00,
2013-07-11 22:23:00,84.0,70.0,29.55,SE,128,0.0,4.0,62,0.00,,,0.00,0.000000,,2013-07-12 03:23:00,
2013-07-11 22:35:00,83.0,69.0,29.55,ESE,121,1.0,5.0,63,0.00,,,0.00,0.000000,,2013-07-12 03:35:00,
2013-07-11 22:43:00,83.0,69.0,29.55,ESE,121,1.0,5.0,63,0.00,,,0.00,0.000000,,2013-07-12 03:43:00,
2013-07-11 22:56:00,83.0,70.0,29.56,ESE,103,1.0,4.0,64,0.00,,,0.00,0.000000,,2013-07-12 03:56:00,
2013-07-11 23:01:00,83.0,70.0,29.56,ESE,121,2.0,6.0,66,0.00,,,0.00,0.000000,,2013-07-12 04:01:00,
2013-07-11 23:11:00,83.0,70.0,29.56,ESE,121,2.0,6.0,66,0.00,,,0.00,0.000000,,2013-07-12 04:11:00,
2013-07-11 23:21:00,82.0,70.0,29.55,ESE,105,2.0,5.0,67,0.00,,,0.00,0.000000,,2013-07-12 04:21:00,
2013-07-11 23:32:00,82.0,70.0,29.56,SE,136,0.0,3.0,68,0.00,,,0.00,0.000000,,2013-07-12 04:32:00,
2013-07-11 23:43:00,82.0,70.0,29.56,SE,136,0.0,3.0,68,0.00,,,0.00,0.000000,,2013-07-12 04:43:00,
2013-07-11 23:53:00,81.0,69.0,29.57,SE,145,0.0,3.0,68,0.00,,,0.00,0.000000,,2013-07-12 04:53:00,